Location: Newark
(42.7133°N, 87.7910°W)
Time: 21:00:18
(UTC+00:00)

Vanguard 1 - Pass Details

Date: 22 September 2019
Orbit: 653 x 3830 km, 34.3° (Epoch: 12 October)

Event Time Altitude Azimuth Distance (km) Brightness Sun altitude
Rises 12:08:37 0° 277° (W) 7,814 13.9 4.7°
Reaches altitude 10° 12:14:34 10° 273° (W) 6,533 13.6 5.8°
Maximum altitude 12:32:43 49° 207° (SSW) 2,975 12.5 9.1°
Drops below altitude 10° 12:43:13 10° 136° (SE) 3,919 14.2 11.0°
Sets 12:45:50 0° 130° (SE) 4,582 14.6 11.5°
